[[{"header":{"parameterUnit":"m.s-1","parameterCategory":2,"la1":30.2991,"la2":30.254,"lo1":-89.0895,"lo2":-89.0444,"dy":0.0017,"dx":0.0017,"nx":28,"ny":28,"refTime":"2025-12-28T09:00:00:Z","depth":"0","parameterNumber":2,"parameterNumberName":"U-component_of_CURRENTS"},"data":[0,0,0,0,0,0,0,0,0,0,0,0,0,0,0,0,0,0,0,0,0,0,0,0,0,0,0,0,0,0,0,0,0,0,0,0,0,0,0,0,0,0,0,0,0,0,0,0,0,0,0,0,0,0,0,0,0,0,0.2514,0.2515,0,0.2571,0.2571,0.2571,0.2515,0.2513,0.2512,0.251,0.2576,0.2579,0.2582,0,0,0,0,0,0,0,0,0,0,0,0,0,0.2383,0.2385,0.2514,0.2515,0.2516,0.2571,0.2571,0.2571,0.2515,0.2513,0.2511,0.251,0.2575,0.2579,0.2583,0,0,0,0,0,0,0,0,0,0,0,0,0,0.2433,0.2385,0.2514,0.25,0.25,0.2571,0.2571,0.2571,0.2516,0.2513,0.2511,0.2509,0.2574,0.2578,0.2583,0.2661,0,0,0.2598,0.26,0,0,0,0,0,0,0,0,0.2431,0.2437,0.2501,0.2501,0.2501,0.2539,0.255,0.2604,0.2516,0.2503,0.251,0.2507,0.2571,0.2576,0.2582,0.2664,0.2667,0.2598,0.2601,0.2603,0.2605,0,0,0,0,0,0,0,0.2427,0.2435,0.2529,0.2503,0.2503,0.2501,0.2504,0.2559,0.2544,0.2504,0.2501,0.2519,0.257,0.2577,0.2583,0.2668,0.2598,0.2603,0.2606,0.2607,0.2852,0.2855,0,0,0,0,0,0,0.2436,0.2432,0.2528,0.2532,0.2467,0.2506,0.2509,0.2524,0.2543,0.2546,0.2521,0.2517,0.257,0.2578,0.2585,0.2737,0.2603,0.2608,0.2611,0.2848,0.2853,0.2856,0,0,0,0,0,0,0.2432,0.2444,0.2526,0.2488,0.2499,0.2511,0.2528,0.2527,0.2535,0.2558,0.2559,0.2531,0.2569,0.2579,0.2653,0.2736,0.261,0.2615,0.2844,0.285,0.2854,0.3003,0,0,0,0,0,0,0.2428,0.2442,0.2463,0.2489,0.2502,0.2576,0.2531,0.253,0.2553,0.2547,0.2568,0.2571,0.2568,0.2646,0.2658,0.2741,0.2618,0.2839,0.2846,0.2853,0.2994,0.3013,0.3029,0,0,0,0,0,0.2423,0.2487,0.2463,0.2476,0.2528,0.2579,0.2585,0.258,0.2556,0.2574,0.2595,0.257,0.2696,0.2653,0.2666,0.2753,0.2836,0.2844,0.2852,0.2986,0.3009,0.3029,0,0,0,0,0,0,0.2472,0.2489,0.2463,0.2533,0.2548,0.2572,0.2607,0.2594,0.2624,0.2623,0.262,0.2628,0.2729,0.2719,0.2671,0.2841,0.2762,0.2773,0.2859,0.2881,0.2899,0.2937,0.2622,0,0,0,0,0,0.2485,0.2519,0.2528,0.2588,0.2593,0.2594,0.2617,0.2612,0.2642,0.2649,0.2667,0.2703,0.2777,0.2806,0.2855,0.295,0.2962,0.3013,0.303,0.3046,0.3086,0.3165,0.3193,0.2883,0.2883,0.2883,0,0,0.2531,0.2541,0.2566,0.2597,0.2605,0.2669,0.26,0.2648,0.2717,0.266,0.2759,0.2773,0.2817,0.2925,0.2969,0.2924,0.3142,0.3056,0.3069,0.3101,0.3176,0.3206,0.3233,0.2888,0.2887,0.2886,0,0,0.2644,0.2632,0.2688,0.2709,0.2729,0.2736,0.2752,0.2772,0.2784,0.2878,0.2867,0.2935,0.3018,0.3075,0.3117,0.3268,0.3238,0.3267,0.339,0.3466,0.3492,0.3516,0.3573,0.3601,0.327,0.3271,0.3271,0,0.2699,0.2759,0.272,0.2784,0.2819,0.2775,0.2852,0.2889,0.2937,0.2966,0.293,0.3085,0.3111,0.3272,0.3324,0.3316,0.3332,0.3303,0.349,0.3513,0.3535,0.3588,0.3617,0.3279,0.3278,0.3277,0.3276,0,0.2845,0.2894,0.2938,0.299,0.3022,0.3086,0.3109,0.3141,0.3143,0.3175,0.3296,0.3334,0.3411,0.3444,0.3442,0.3612,0.3566,0.3506,0.3434,0.3575,0.3622,0.3649,0.329,0.3287,0.3285,0.3283,0,0,0.2967,0.3025,0.3041,0.3059,0.3125,0.3153,0.3271,0.3342,0.3386,0.3462,0.3543,0.3701,0.3669,0.3716,0.371,0.3792,0.3959,0.372,0.372,0.3777,0.4118,0.4046,0.4067,0.3916,0.3921,0.3926,0.4091,0,0.3086,0.3202,0.3221,0.3341,0.3383,0.3382,0.3476,0.3534,0.3562,0.3625,0.3702,0.3778,0.379,0.3794,0.3905,0.3927,0.4036,0.392,0.3975,0.3978,0.3896,0.4099,0.3949,0.4081,0.4116,0.412,0.4124,0,0.321,0.326,0.3375,0.343,0.3449,0.3521,0.3576,0.3658,0.3749,0.3765,0.3871,0.3886,0.4056,0.3993,0.4211,0.4124,0.4165,0.4188,0.4193,0.4099,0.3957,0.3946,0.4127,0.399,0.4164,0.4161,0.4158,0,0.3229,0.3359,0.3427,0.3461,0.354,0.3577,0.3618,0.3693,0.3729,0.3833,0.3852,0.4037,0.4088,0.422,0.4306,0.4252,0.45,0.4408,0.4407,0.44,0.4277,0.4249,0.4334,0.4591,0.459,0.459,0.459,0,0.3312,0.3365,0.3427,0.3461,0.352,0.3574,0.3631,0.368,0.3754,0.3803,0.3907,0.3977,0.4144,0.4281,0.4364,0.4496,0.4563,0.4501,0.447,0.4322,0.4298,0.4169,0.4078,0.4596,0.4595,0.4594,0.4593,0,0.3289,0.3351,0.3412,0.3496,0.3515,0.3539,0.36,0.3632,0.3709,0.3769,0.3801,0.3965,0.4144,0.4309,0.4502,0.4542,0.4541,0.4688,0.4503,0.4448,0.4273,0.4194,0.4151,0.4034,0.4719,0.4719,0.4718,0,0.3272,0.3308,0.339,0.3404,0.3433,0.3479,0.35,0.3587,0.3616,0.3759,0.3783,0.3972,0.4089,0.4374,0.4501,0.4674,0.453,0.4596,0.4486,0.4316,0.4206,0.4037,0.393,0.4383,0.4381,0.4378,0.4376,0,0.3233,0.3262,0.3302,0.3334,0.3358,0.3385,0.3427,0.3442,0.3546,0.3611,0.3714,0.3819,0.4086,0.4209,0.443,0.4508,0.4352,0.4547,0.4434,0.404,0.3803,0.3653,0.4206,0.4354,0.4356,0.4358,0.4359,0.436,0.3178,0.3185,0.3236,0.3255,0.3275,0.3271,0.3263,0.3319,0.3362,0.3432,0.3596,0.3699,0.3916,0.4206,0.4265,0.4229,0.4204,0.4125,0.4075,0.3946,0.3743,0.4251,0.4308,0.431,0.4311,0.4313,0.4314,0,0.3111,0.3133,0.3152,0.3165,0.3139,0.3183,0.3195,0.3175,0.319,0.3303,0.3393,0.3531,0.3667,0.3817,0.3896,0.3783,0.3644,0.3682,0.342,0.3361,0.3887,0.378,0.3646,0.3646,0.3647,0.3647,0.3647,0.3647,0.3082,0.3084,0.3101,0.3039,0.3028,0.2972,0.2959,0.2948,0.2999,0.3027,0.3068,0.3163,0.3368,0.3534,0.3452,0.3377,0.3119,0.3012,0.2991,0.3356,0.3392,0.3427,0.3308,0.3077,0.3077,0.2355,0.235,0.2345]},{"header":{"parameterUnit":"m.s-1","parameterCategory":2,"la1":30.2991,"la2":30.254,"lo1":-89.0895,"lo2":-89.0444,"dy":0.0017,"dx":0.0017,"nx":28,"ny":28,"refTime":"2025-12-28T09:00:00:Z","depth":"0","parameterNumber":3,"parameterNumberName":"V-component_of_CURRENTS"},"data":[0,0,0,0,0,0,0,0,0,0,0,0,0,0,0,0,0,0,0,0,0,0,0,0,0,0,0,0,0,0,0,0,0,0,0,0,0,0,0,0,0,0,0,0,0,0,0,0,0,0,0,0,0,0,0,0,0,0,0.0742,0.0742,0,0.0719,0.0718,0.0717,0.0656,0.0655,0.0654,0.0654,0.0558,0.0556,0.0555,0,0,0,0,0,0,0,0,0,0,0,0,0,0.0709,0.071,0.0742,0.0742,0.0742,0.0719,0.0718,0.0717,0.0656,0.0655,0.0654,0.0653,0.0559,0.0557,0.0554,0,0,0,0,0,0,0,0,0,0,0,0,0,0.0703,0.071,0.0742,0.0713,0.0711,0.0719,0.0718,0.0717,0.0656,0.0655,0.0654,0.0653,0.0559,0.0557,0.0554,0.0561,0,0,0.0546,0.0545,0,0,0,0,0,0,0,0,0.0704,0.0704,0.0717,0.0715,0.0713,0.0694,0.0672,0.0663,0.0657,0.0671,0.0654,0.0652,0.0601,0.0595,0.0586,0.0557,0.0553,0.0546,0.0544,0.0543,0.0542,0,0,0,0,0,0,0,0.0704,0.0704,0.0727,0.0718,0.0715,0.0694,0.0691,0.067,0.0637,0.0669,0.0666,0.0673,0.0599,0.0589,0.0584,0.0551,0.0546,0.0543,0.0542,0.0541,0.052,0.0521,0,0,0,0,0,0,0.0721,0.0705,0.0728,0.0727,0.0712,0.0696,0.0693,0.0696,0.0639,0.0631,0.0675,0.0671,0.0594,0.0587,0.058,0.0615,0.0543,0.054,0.0539,0.0519,0.052,0.0521,0,0,0,0,0,0,0.0721,0.0724,0.0729,0.072,0.072,0.0699,0.0703,0.0697,0.0688,0.0645,0.0634,0.0673,0.0593,0.0584,0.0576,0.061,0.0539,0.0537,0.0517,0.0519,0.0521,0.0666,0,0,0,0,0,0,0.072,0.0723,0.0735,0.0721,0.0721,0.0742,0.0704,0.0697,0.0697,0.0692,0.064,0.063,0.0591,0.0581,0.0573,0.0605,0.0534,0.0516,0.0518,0.052,0.066,0.0672,0.0683,0,0,0,0,0,0.0719,0.075,0.0736,0.0739,0.0737,0.0744,0.0741,0.0718,0.0699,0.0703,0.0675,0.0631,0.0587,0.058,0.0571,0.0602,0.0515,0.0518,0.052,0.0655,0.067,0.0683,0,0,0,0,0,0,0.0761,0.0747,0.0731,0.076,0.0754,0.0735,0.0745,0.0728,0.0709,0.0701,0.0651,0.0641,0.0645,0.0601,0.0594,0.0599,0.0542,0.0542,0.0647,0.0661,0.0672,0.0709,0.0532,0,0,0,0,0,0.0774,0.078,0.0768,0.0793,0.0788,0.0765,0.0767,0.0751,0.0735,0.0724,0.0697,0.0664,0.0649,0.0638,0.0612,0.062,0.0581,0.0629,0.0641,0.0652,0.0674,0.0644,0.0656,0.0529,0.0529,0.0529,0,0,0.08,0.0794,0.0799,0.0801,0.0788,0.0814,0.0761,0.0769,0.0799,0.0718,0.0745,0.0705,0.0659,0.0671,0.0668,0.0639,0.0667,0.0655,0.0664,0.0681,0.0648,0.0661,0.0672,0.0531,0.053,0.053,0,0,0.0855,0.0844,0.0862,0.0865,0.0859,0.0852,0.0859,0.0844,0.0838,0.0859,0.0811,0.08,0.0772,0.0756,0.0742,0.0801,0.073,0.0779,0.0871,0.0843,0.0854,0.0863,0.0835,0.084,0.0785,0.0786,0.0786,0,0.0882,0.091,0.0873,0.09,0.0925,0.0877,0.0922,0.0918,0.0909,0.0923,0.0884,0.0872,0.0822,0.0855,0.0868,0.0832,0.0797,0.0827,0.0861,0.0869,0.0876,0.0844,0.0848,0.0793,0.0792,0.0791,0.079,0,0.0949,0.0977,0.0994,0.1011,0.1034,0.1061,0.106,0.1071,0.106,0.106,0.1083,0.1026,0.102,0.0997,0.095,0.0979,0.0933,0.0882,0.0833,0.0898,0.086,0.0862,0.0803,0.0801,0.0798,0.0797,0,0,0.0986,0.1028,0.1034,0.1066,0.1095,0.1119,0.1176,0.1213,0.1249,0.1237,0.1293,0.126,0.1221,0.1202,0.1139,0.1109,0.1115,0.1021,0.1016,0.1008,0.1052,0.1028,0.1026,0.1064,0.1065,0.1066,0.1009,0,0.1043,0.1114,0.1134,0.1225,0.1261,0.1268,0.133,0.1362,0.1365,0.1402,0.1366,0.138,0.1303,0.1289,0.1261,0.1159,0.1124,0.1135,0.0978,0.0974,0.0956,0.1029,0.0976,0.0922,0.101,0.101,0.101,0,0.1095,0.1139,0.1229,0.1322,0.1341,0.1398,0.1478,0.1528,0.1567,0.1571,0.1591,0.1548,0.1546,0.1437,0.1344,0.1353,0.1218,0.1123,0.1118,0.105,0.0953,0.0868,0.0921,0.0675,0.1011,0.1011,0.1011,0,0.1114,0.1209,0.1284,0.1315,0.141,0.1463,0.1518,0.1576,0.1628,0.1671,0.1705,0.1696,0.1687,0.1562,0.1404,0.1359,0.1277,0.1184,0.1039,0.1035,0.0939,0.0925,0.0749,0.1089,0.109,0.109,0.109,0,0.1159,0.1219,0.1294,0.1334,0.1438,0.1499,0.1605,0.1646,0.1726,0.1811,0.1789,0.1849,0.1709,0.1652,0.1473,0.1306,0.1337,0.1084,0.1031,0.0987,0.0979,0.0717,0.0609,0.1088,0.1088,0.1088,0.1089,0,0.1161,0.1208,0.1296,0.1404,0.1443,0.1514,0.1655,0.1727,0.1795,0.1903,0.1926,0.1967,0.1925,0.1779,0.1587,0.14,0.1096,0.1133,0.1104,0.105,0.0671,0.0575,0.042,0.0337,0.0965,0.0964,0.0963,0,0.1168,0.1208,0.1325,0.1384,0.1435,0.1547,0.1632,0.174,0.1831,0.1984,0.2047,0.2064,0.2117,0.1886,0.1584,0.1316,0.1091,0.1014,0.0913,0.0673,0.0527,0.0481,0.0419,0.0832,0.0831,0.0829,0.0828,0,0.1185,0.1216,0.1288,0.1398,0.1494,0.1613,0.1746,0.1836,0.1982,0.209,0.2251,0.2316,0.2152,0.1926,0.1566,0.1326,0.0861,0.0976,0.0726,0.0429,0.037,0.0257,0.0844,0.0816,0.0818,0.0819,0.0819,0.082,0.1191,0.1238,0.1325,0.1435,0.1538,0.1681,0.1792,0.1948,0.2119,0.233,0.2391,0.2518,0.2139,0.1692,0.1378,0.07,0.0779,0.0444,0.0354,0.0335,0.0241,0.0822,0.0737,0.0738,0.0739,0.0739,0.074,0,0.121,0.1271,0.1368,0.1502,0.1608,0.1669,0.1872,0.2004,0.2215,0.2426,0.2584,0.2446,0.1942,0.1417,0.0568,0.0136,-0.0009,-0.011,-0.0231,-0.026,0.0229,0.0204,0.0004,0.0004,0.0004,0.0004,0.0005,0.0005,0.1227,0.1314,0.1371,0.154,0.1633,0.1798,0.1921,0.2125,0.2312,0.2572,0.2658,0.2721,0.2238,0.0741,-0.0264,-0.0471,-0.0754,-0.0781,-0.088,-0.0628,-0.0585,-0.0544,-0.0596,-0.0961,-0.0962,-0.1345,-0.1349,-0.1353]}],[{"header":{"parameterUnit":"m.s-1","parameterCategory":2,"la1":30.2991,"la2":30.254,"lo1":-89.0895,"lo2":-89.0444,"dy":0.0017,"dx":0.0017,"nx":28,"ny":28,"refTime":"2025-12-28T09:00:00:Z","depth":"2","parameterNumber":2,"parameterNumberName":"U-component_of_CURRENTS"},"data":[0,0,0,0,0,0,0,0,0,0,0,0,0,0,0,0,0,0,0,0,0,0,0,0,0,0,0,0,0,0,0,0,0,0,0,0,0,0,0,0,0,0,0,0,0,0,0,0,0,0,0,0,0,0,0,0,0,0,0.1204,0.1204,0,0.121,0.121,0.121,0.1195,0.1195,0.1194,0.1194,0.125,0.1251,0.1253,0,0,0,0,0,0,0,0,0,0,0,0,0,0.1247,0.1245,0.1204,0.1204,0.1205,0.121,0.121,0.121,0.1195,0.1195,0.1194,0.1194,0.1249,0.1251,0.1253,0,0,0,0,0,0,0,0,0,0,0,0,0,0.1235,0.1245,0.1204,0.12,0.12,0.121,0.121,0.121,0.1195,0.1195,0.1194,0.1194,0.1249,0.1251,0.1254,0.1274,0,0,0.1261,0.1262,0,0,0,0,0,0,0,0,0.1235,0.1233,0.1201,0.1201,0.1201,0.1204,0.1246,0.1235,0.1195,0.1193,0.1194,0.1194,0.1242,0.1245,0.1241,0.1276,0.1279,0.1261,0.1263,0.1264,0.1264,0,0,0,0,0,0,0,0.1236,0.1233,0.1203,0.1201,0.1201,0.1222,0.1219,0.1243,0.1217,0.1193,0.1193,0.1199,0.1242,0.1238,0.1242,0.1279,0.1261,0.1263,0.1265,0.1266,0.1505,0.151,0,0,0,0,0,0,0.1239,0.1233,0.1203,0.1203,0.1222,0.1222,0.1218,0.1201,0.1216,0.1218,0.12,0.1199,0.1234,0.1239,0.1244,0.1393,0.1264,0.1266,0.1267,0.1501,0.1506,0.1512,0,0,0,0,0,0,0.1239,0.1235,0.1203,0.1223,0.1221,0.1221,0.1202,0.1201,0.1233,0.1221,0.1223,0.1237,0.1234,0.1241,0.1294,0.139,0.1267,0.1269,0.1495,0.1502,0.1509,0.1612,0,0,0,0,0,0,0.124,0.1234,0.1224,0.1222,0.122,0.1236,0.1202,0.1201,0.1237,0.1237,0.1253,0.1256,0.1235,0.129,0.1296,0.1392,0.1271,0.1489,0.1498,0.1507,0.1602,0.1622,0.1638,0,0,0,0,0,0.1241,0.1225,0.1223,0.122,0.1204,0.1238,0.124,0.1237,0.124,0.1264,0.1273,0.1257,0.1355,0.1294,0.1301,0.1399,0.1484,0.1495,0.1506,0.1594,0.1618,0.1638,0,0,0,0,0,0,0.1247,0.1222,0.122,0.1199,0.1234,0.1238,0.1253,0.1267,0.1292,0.1315,0.1287,0.1291,0.1399,0.1383,0.1317,0.1504,0.1432,0.1444,0.1497,0.1519,0.1537,0.146,0.1273,0,0,0,0,0,0.1243,0.1219,0.1231,0.1224,0.1241,0.1261,0.1276,0.1305,0.1326,0.1338,0.1354,0.1392,0.1446,0.1463,0.1515,0.158,0.1572,0.1664,0.1682,0.1697,0.1645,0.1723,0.1742,0.1548,0.1548,0.1548,0,0,0.1242,0.1231,0.1216,0.1225,0.1245,0.1268,0.1269,0.1335,0.1365,0.1345,0.1401,0.1468,0.1487,0.158,0.1627,0.1571,0.1766,0.1711,0.1723,0.1661,0.1736,0.1754,0.177,0.1555,0.1554,0.1553,0,0,0.1243,0.123,0.1219,0.1246,0.1304,0.1318,0.1351,0.1408,0.1441,0.1517,0.1534,0.1632,0.1695,0.1725,0.1743,0.189,0.1879,0.1955,0.1951,0.2032,0.2046,0.2058,0.2128,0.2145,0.1938,0.1938,0.1938,0,0.1236,0.1232,0.1234,0.125,0.1278,0.1341,0.138,0.1413,0.1491,0.1533,0.1558,0.1705,0.1753,0.1824,0.1886,0.1927,0.1958,0.1859,0.2049,0.206,0.2071,0.2138,0.2156,0.1944,0.1944,0.1943,0.1943,0,0.1242,0.1249,0.1262,0.1277,0.1312,0.1375,0.1427,0.1501,0.1574,0.1615,0.1755,0.1822,0.1891,0.1973,0.1962,0.2085,0.2085,0.2082,0.1974,0.2095,0.2162,0.2178,0.1953,0.1951,0.1949,0.1948,0,0,0.119,0.1244,0.1249,0.1283,0.135,0.139,0.1455,0.1533,0.1596,0.1702,0.1776,0.1907,0.1967,0.1991,0.2045,0.2102,0.2258,0.2115,0.2117,0.2148,0.2435,0.2308,0.2314,0.229,0.2293,0.2295,0.2469,0,0.1199,0.1237,0.126,0.1323,0.1363,0.1435,0.1481,0.1572,0.1665,0.1757,0.1848,0.196,0.1962,0.2053,0.2104,0.2213,0.2297,0.2209,0.2339,0.2342,0.2185,0.2326,0.2177,0.2306,0.2484,0.2487,0.2489,0,0.1201,0.1231,0.1285,0.1378,0.1402,0.1439,0.1562,0.1625,0.1741,0.1825,0.1911,0.1989,0.208,0.2106,0.2257,0.2201,0.2322,0.2398,0.2408,0.2236,0.2243,0.2208,0.2328,0.2515,0.2513,0.2511,0.2509,0,0.1192,0.1256,0.1306,0.1332,0.1427,0.1478,0.1541,0.1655,0.1737,0.1873,0.1969,0.2045,0.2156,0.2241,0.236,0.2345,0.253,0.2541,0.2541,0.2534,0.2395,0.2369,0.2694,0.2694,0.2694,0.2693,0.2693,0,0.1199,0.1242,0.1309,0.1338,0.142,0.1491,0.1594,0.1679,0.1808,0.1914,0.2002,0.211,0.2207,0.2311,0.2385,0.247,0.2556,0.2538,0.2567,0.2435,0.2412,0.2557,0.2538,0.27,0.2698,0.2697,0.2696,0,0.119,0.1232,0.1294,0.1385,0.142,0.1483,0.1613,0.169,0.1824,0.1968,0.2024,0.2194,0.2312,0.2374,0.2555,0.2533,0.2619,0.266,0.2474,0.2474,0.2574,0.256,0.2668,0.2664,0.2662,0.266,0.2658,0,0.119,0.1217,0.1306,0.1343,0.1385,0.1478,0.1546,0.1684,0.1776,0.2016,0.2091,0.2267,0.2356,0.2489,0.2503,0.2561,0.2637,0.2468,0.2393,0.2551,0.2571,0.2561,0.2551,0.2305,0.23,0.2297,0.2294,0,0.1184,0.1211,0.1257,0.1327,0.1393,0.1469,0.1583,0.1655,0.1836,0.1956,0.2154,0.2248,0.2387,0.2359,0.2391,0.2402,0.2403,0.239,0.2655,0.229,0.2211,0.2228,0.2231,0.226,0.2264,0.2266,0.2268,0.2269,0.1171,0.1195,0.1248,0.1315,0.1382,0.146,0.1508,0.1622,0.175,0.1898,0.2067,0.2143,0.2216,0.2163,0.2135,0.2114,0.2272,0.2204,0.2217,0.2233,0.2115,0.203,0.2026,0.2028,0.203,0.2031,0.2032,0,0.1153,0.1185,0.1235,0.1311,0.1353,0.1414,0.1529,0.1529,0.1626,0.1774,0.1881,0.1789,0.181,0.1878,0.1824,0.1829,0.1821,0.175,0.1755,0.1791,0.1822,0.1681,0.1479,0.1477,0.1475,0.1473,0,0,0.1147,0.1179,0.1206,0.1263,0.1313,0.1354,0.1401,0.1399,0.1474,0.1467,0.1522,0.1671,0.1826,0.1615,0.1613,0.155,0.1644,0.1485,0.1939,0.1981,0.2009,0.2103,0.1928,0,0,0,0,0]},{"header":{"parameterUnit":"m.s-1","parameterCategory":2,"la1":30.2991,"la2":30.254,"lo1":-89.0895,"lo2":-89.0444,"dy":0.0017,"dx":0.0017,"nx":28,"ny":28,"refTime":"2025-12-28T09:00:00:Z","depth":"2","parameterNumber":3,"parameterNumberName":"V-component_of_CURRENTS"},"data":[0,0,0,0,0,0,0,0,0,0,0,0,0,0,0,0,0,0,0,0,0,0,0,0,0,0,0,0,0,0,0,0,0,0,0,0,0,0,0,0,0,0,0,0,0,0,0,0,0,0,0,0,0,0,0,0,0,0,-0.0544,-0.0545,0,-0.0593,-0.0594,-0.0594,-0.06,-0.06,-0.06,-0.06,-0.0599,-0.0599,-0.0599,0,0,0,0,0,0,0,0,0,0,0,0,0,-0.0429,-0.0431,-0.0544,-0.0545,-0.0546,-0.0593,-0.0594,-0.0594,-0.06,-0.06,-0.06,-0.06,-0.0599,-0.0599,-0.0599,0,0,0,0,0,0,0,0,0,0,0,0,0,-0.0475,-0.0432,-0.0544,-0.0558,-0.056,-0.0593,-0.0594,-0.0594,-0.06,-0.06,-0.06,-0.06,-0.0599,-0.0599,-0.0599,-0.0602,0,0,-0.0599,-0.0599,0,0,0,0,0,0,0,0,-0.0472,-0.0479,-0.0555,-0.0557,-0.0559,-0.0594,-0.0553,-0.0596,-0.0601,-0.0581,-0.06,-0.06,-0.0595,-0.0596,-0.06,-0.0602,-0.0602,-0.0599,-0.0599,-0.0599,-0.0599,0,0,0,0,0,0,0,-0.0469,-0.0477,-0.0559,-0.0556,-0.0559,-0.0553,-0.0559,-0.0561,-0.0584,-0.0583,-0.0584,-0.0596,-0.0596,-0.06,-0.06,-0.0602,-0.0599,-0.0599,-0.0599,-0.0599,-0.0531,-0.0529,0,0,0,0,0,0,-0.0473,-0.0474,-0.0558,-0.0561,-0.0519,-0.0556,-0.0562,-0.058,-0.0585,-0.0588,-0.0596,-0.0596,-0.06,-0.06,-0.06,-0.0535,-0.0599,-0.0599,-0.0599,-0.0533,-0.0531,-0.0529,0,0,0,0,0,0,-0.0471,-0.0481,-0.0556,-0.0521,-0.0531,-0.0558,-0.0578,-0.0581,-0.0554,-0.0597,-0.0597,-0.0562,-0.06,-0.06,-0.0582,-0.0538,-0.0599,-0.0599,-0.0535,-0.0532,-0.053,-0.045,0,0,0,0,0,0,-0.0467,-0.0479,-0.0479,-0.0522,-0.0533,-0.0551,-0.0578,-0.0582,-0.0565,-0.0565,-0.0569,-0.0571,-0.06,-0.0582,-0.0582,-0.0539,-0.0599,-0.0537,-0.0534,-0.053,-0.0455,-0.0445,-0.0436,0,0,0,0,0,-0.0463,-0.0481,-0.0479,-0.0489,-0.0538,-0.055,-0.0554,-0.0571,-0.0563,-0.0544,-0.0553,-0.0569,-0.0559,-0.0581,-0.0582,-0.0537,-0.0539,-0.0535,-0.0531,-0.0459,-0.0447,-0.0436,0,0,0,0,0,0,-0.0422,-0.0485,-0.0484,-0.0516,-0.0515,-0.0552,-0.0544,-0.0544,-0.0535,-0.0512,-0.0554,-0.0557,-0.0515,-0.0539,-0.0562,-0.0506,-0.0547,-0.0543,-0.0492,-0.0481,-0.0472,-0.0534,-0.06,0,0,0,0,0,-0.0415,-0.0453,-0.0477,-0.0496,-0.0488,-0.0499,-0.0501,-0.0491,-0.05,-0.0494,-0.0498,-0.0499,-0.0503,-0.0502,-0.0497,-0.0478,-0.0521,-0.0446,-0.0436,-0.0428,-0.0479,-0.0486,-0.0483,-0.0515,-0.0515,-0.0515,0,0,-0.0405,-0.0445,-0.0462,-0.049,-0.0488,-0.0479,-0.0497,-0.0469,-0.0457,-0.0494,-0.046,-0.0453,-0.0486,-0.046,-0.0443,-0.0474,-0.0433,-0.0423,-0.0416,-0.0473,-0.0481,-0.0479,-0.0476,-0.0512,-0.0512,-0.0513,0,0,-0.0404,-0.0424,-0.044,-0.0437,-0.0425,-0.0433,-0.0412,-0.04,-0.0383,-0.0352,-0.0373,-0.0354,-0.0347,-0.0376,-0.0393,-0.033,-0.037,-0.03,-0.032,-0.0323,-0.0322,-0.0321,-0.0342,-0.0344,-0.031,-0.031,-0.031,0,-0.0384,-0.0404,-0.0437,-0.0434,-0.0423,-0.0407,-0.0375,-0.0372,-0.0351,-0.0341,-0.0321,-0.0323,-0.032,-0.0352,-0.0333,-0.031,-0.0333,-0.0359,-0.0314,-0.0315,-0.0316,-0.0337,-0.0341,-0.0305,-0.0306,-0.0306,-0.0307,0,-0.0385,-0.0381,-0.0379,-0.0385,-0.0375,-0.0336,-0.0331,-0.0294,-0.0258,-0.0263,-0.0234,-0.0246,-0.0262,-0.0237,-0.0277,-0.028,-0.0298,-0.0287,-0.0349,-0.0308,-0.0332,-0.0337,-0.0299,-0.0301,-0.0302,-0.0303,0,0,-0.0392,-0.0381,-0.0377,-0.0342,-0.0325,-0.0309,-0.0287,-0.0267,-0.0245,-0.0221,-0.0214,-0.0223,-0.0224,-0.0248,-0.0266,-0.0294,-0.0287,-0.0306,-0.0308,-0.0341,-0.0315,-0.0341,-0.035,-0.0266,-0.0267,-0.0268,-0.0319,0,-0.0362,-0.0337,-0.0348,-0.029,-0.0253,-0.0239,-0.0228,-0.0208,-0.0187,-0.0174,-0.0203,-0.0187,-0.0232,-0.0211,-0.0253,-0.0292,-0.0304,-0.0277,-0.0342,-0.0345,-0.0385,-0.0358,-0.0313,-0.0358,-0.0324,-0.0325,-0.0326,0,-0.0349,-0.033,-0.027,-0.0213,-0.0194,-0.0172,-0.0125,-0.0106,-0.0119,-0.0102,-0.0134,-0.0148,-0.0222,-0.0212,-0.0324,-0.0308,-0.0312,-0.0339,-0.034,-0.0417,-0.0384,-0.0398,-0.0369,-0.0336,-0.0335,-0.0334,-0.0334,0,-0.0317,-0.0269,-0.0211,-0.0193,-0.0145,-0.0111,-0.0083,-0.0078,-0.0039,-0.0059,-0.0029,-0.0134,-0.013,-0.0223,-0.031,-0.03,-0.0417,-0.0384,-0.0416,-0.0417,-0.0427,-0.0429,-0.0412,-0.0412,-0.0412,-0.0412,-0.0412,0,-0.0283,-0.0231,-0.0185,-0.015,-0.007,-0.0057,0.0017,0.0024,0.0045,0.0092,0.0014,0.0031,-0.0123,-0.0206,-0.0307,-0.0421,-0.0407,-0.0449,-0.044,-0.0393,-0.039,-0.0418,-0.0418,-0.0414,-0.0414,-0.0413,-0.0413,0,-0.0246,-0.022,-0.0144,-0.0079,-0.0049,0.0011,0.0099,0.0146,0.0153,0.0209,0.0215,0.0158,0.004,-0.0139,-0.0268,-0.037,-0.0493,-0.0502,-0.046,-0.0448,-0.049,-0.0485,-0.056,-0.0561,-0.0563,-0.0564,-0.0565,0,-0.0217,-0.0179,-0.0088,-0.0034,0.0006,0.0093,0.0156,0.0196,0.0255,0.0296,0.0334,0.026,0.0221,-0.0049,-0.0263,-0.048,-0.048,-0.054,-0.051,-0.0525,-0.0509,-0.0501,-0.0495,-0.0472,-0.0472,-0.0472,-0.0472,0,-0.0161,-0.0134,-0.0073,0.0032,0.0114,0.0212,0.0309,0.0374,0.0429,0.0485,0.0549,0.0526,0.0286,0.0076,-0.0234,-0.0372,-0.0535,-0.0545,-0.0565,-0.0447,-0.0448,-0.0429,-0.0424,-0.0472,-0.0472,-0.0472,-0.0472,-0.0472,-0.0114,-0.0066,0.0007,0.0114,0.0212,0.0336,0.0435,0.054,0.0661,0.0763,0.0712,0.0703,0.0424,0.0055,-0.0215,-0.049,-0.0486,-0.0553,-0.055,-0.0548,-0.0534,-0.0538,-0.0578,-0.0578,-0.0579,-0.0579,-0.0579,0,-0.0052,-0.0004,0.0089,0.022,0.0341,0.0383,0.0546,0.0653,0.0826,0.0895,0.0945,0.0717,0.0474,0.0161,-0.0226,-0.0475,-0.0479,-0.0551,-0.0488,-0.0488,-0.0487,-0.0468,-0.0495,-0.0495,-0.0495,-0.0496,0,0,-0.002,0.0069,0.0113,0.031,0.0416,0.0597,0.0704,0.0869,0.0977,0.1061,0.107,0.0969,0.0592,0.0333,-0.003,-0.0239,-0.0293,-0.0284,-0.0329,-0.0212,-0.0206,-0.0475,-0.0444,0,0,0,0,0]}],[{"header":{"parameterUnit":"m.s-1","parameterCategory":2,"la1":30.2991,"la2":30.254,"lo1":-89.0895,"lo2":-89.0444,"dy":0.0017,"dx":0.0017,"nx":28,"ny":28,"refTime":"2025-12-28T09:00:00:Z","depth":"4","parameterNumber":2,"parameterNumberName":"U-component_of_CURRENTS"},"data":[0,0,0,0,0,0,0,0,0,0,0,0,0,0,0,0,0,0,0,0,0,0,0,0,0,0,0,0,0,0,0,0,0,0,0,0,0,0,0,0,0,0,0,0,0,0,0,0,0,0,0,0,0,0,0,0,0,0,0.07,0.07,0,0.0732,0.0732,0.0733,0.0789,0.079,0.0791,0.0792,0.0838,0.0838,0.0838,0,0,0,0,0,0,0,0,0,0,0,0,0,0.0656,0.0656,0.07,0.07,0.0701,0.0732,0.0732,0.0733,0.0788,0.079,0.0791,0.0792,0.0838,0.0838,0.0838,0,0,0,0,0,0,0,0,0,0,0,0,0,0.068,0.0657,0.07,0.0732,0.0735,0.0732,0.0732,0.0733,0.0788,0.079,0.0791,0.0793,0.0838,0.0838,0.0838,0.081,0,0,0.084,0.084,0,0,0,0,0,0,0,0,0.0679,0.0682,0.0727,0.073,0.0733,0.0757,0.0734,0.0759,0.0788,0.0768,0.0792,0.0793,0.0811,0.0814,0.0817,0.0812,0.0814,0.084,0.084,0.084,0.084,0,0,0,0,0,0,0,0.0677,0.0681,0.0713,0.0727,0.0731,0.0734,0.0739,0.0738,0.0781,0.077,0.0774,0.0777,0.0813,0.0816,0.0818,0.0815,0.084,0.084,0.084,0.0841,0.0894,0.0896,0,0,0,0,0,0,0.0672,0.0679,0.0712,0.0714,0.0709,0.0733,0.074,0.0748,0.0781,0.0787,0.0775,0.0779,0.0815,0.0818,0.082,0.0883,0.084,0.0841,0.0841,0.0893,0.0895,0.0896,0,0,0,0,0,0,0.0671,0.0675,0.0711,0.0696,0.0701,0.0733,0.0742,0.0748,0.078,0.0785,0.0792,0.0804,0.0816,0.0819,0.0842,0.0882,0.0841,0.0841,0.0892,0.0894,0.0895,0.0948,0,0,0,0,0,0,0.067,0.0675,0.0688,0.0696,0.0702,0.0728,0.0741,0.0748,0.0777,0.0783,0.0811,0.0815,0.0817,0.0842,0.0843,0.0881,0.0841,0.089,0.0893,0.0895,0.0945,0.0951,0.0957,0,0,0,0,0,0.0668,0.0678,0.0688,0.0693,0.0716,0.0728,0.0732,0.0759,0.0777,0.0794,0.0812,0.0816,0.0857,0.0842,0.0843,0.0883,0.0889,0.0892,0.0895,0.0942,0.095,0.0957,0,0,0,0,0,0,0.0663,0.0685,0.0696,0.0712,0.0728,0.0738,0.0756,0.0771,0.0797,0.081,0.0818,0.0824,0.0861,0.0859,0.0842,0.0906,0.0879,0.0882,0.0914,0.0922,0.0928,0.0933,0.0842,0,0,0,0,0,0.0667,0.0683,0.0699,0.0712,0.0726,0.0745,0.0757,0.0773,0.0791,0.0806,0.0821,0.0842,0.0866,0.0884,0.0893,0.0919,0.0915,0.095,0.0956,0.0961,0.0967,0.0983,0.0991,0.0905,0.0905,0.0905,0,0,0.0666,0.068,0.0689,0.0713,0.0731,0.0752,0.0758,0.0782,0.0808,0.0804,0.0846,0.0858,0.0875,0.0911,0.0929,0.092,0.0984,0.0964,0.0969,0.0972,0.0987,0.0995,0.1002,0.0906,0.0906,0.0906,0,0,0.0668,0.069,0.0709,0.0726,0.0754,0.0766,0.0779,0.0802,0.0829,0.0857,0.0871,0.0899,0.093,0.095,0.0966,0.1007,0.101,0.1027,0.107,0.1087,0.1094,0.11,0.1109,0.1115,0.1037,0.1037,0.1038,0,0.0667,0.0694,0.0714,0.0737,0.0757,0.0778,0.0804,0.0827,0.0853,0.0877,0.0881,0.0942,0.0948,0.1004,0.1027,0.1022,0.1033,0.1042,0.1094,0.11,0.1106,0.1113,0.112,0.104,0.104,0.104,0.1039,0,0.0688,0.0712,0.0725,0.0766,0.0789,0.0811,0.0845,0.0874,0.0905,0.0927,0.0987,0.0997,0.1037,0.1053,0.1056,0.1114,0.111,0.1094,0.1075,0.1118,0.1123,0.1129,0.1044,0.1043,0.1042,0.1042,0,0,0.0669,0.0729,0.0734,0.0762,0.0808,0.0828,0.0876,0.0924,0.0965,0.1,0.1054,0.1098,0.1112,0.113,0.1144,0.1166,0.121,0.116,0.116,0.1168,0.1256,0.1212,0.1214,0.1214,0.1215,0.1217,0.1245,0,0.068,0.0725,0.0756,0.0803,0.0832,0.0873,0.0917,0.0964,0.1005,0.1056,0.1095,0.1148,0.1143,0.1176,0.1198,0.121,0.1229,0.1204,0.1214,0.1214,0.1169,0.122,0.1221,0.1249,0.125,0.1251,0.1252,0,0.0689,0.0721,0.0768,0.0833,0.0853,0.0889,0.0967,0.1008,0.1081,0.1118,0.1175,0.1204,0.1263,0.1241,0.1288,0.1282,0.1276,0.1275,0.1275,0.122,0.1182,0.1196,0.1262,0.1261,0.126,0.126,0.1259,0,0.0665,0.0728,0.0768,0.079,0.0865,0.0908,0.0958,0.1031,0.1076,0.1165,0.121,0.127,0.1319,0.1327,0.1341,0.1324,0.1378,0.1341,0.1293,0.1289,0.1294,0.1287,0.136,0.136,0.136,0.136,0.136,0,0.0654,0.0688,0.0766,0.0788,0.0847,0.0911,0.0979,0.1037,0.112,0.1178,0.1247,0.13,0.1347,0.1385,0.1369,0.1364,0.14,0.1312,0.13,0.1316,0.1311,0.1298,0.1291,0.1361,0.136,0.136,0.136,0,0.0614,0.0664,0.0714,0.0803,0.0835,0.0882,0.0986,0.1028,0.1126,0.1204,0.1243,0.1344,0.1404,0.1433,0.1454,0.1403,0.1392,0.1374,0.1407,0.1393,0.128,0.1275,0.1313,0.1312,0.1311,0.131,0.1309,0,0.0599,0.0619,0.0708,0.074,0.0785,0.0861,0.0907,0.1015,0.1065,0.1218,0.1251,0.136,0.1414,0.1414,0.144,0.1423,0.1398,0.1377,0.1312,0.1294,0.1278,0.1275,0.1271,0.1308,0.1307,0.1307,0.1307,0,0.0567,0.06,0.0636,0.0693,0.075,0.0804,0.089,0.0921,0.1051,0.115,0.124,0.1287,0.1359,0.1381,0.1397,0.1369,0.1382,0.1365,0.1366,0.1304,0.1288,0.1273,0.127,0.1303,0.1304,0.1304,0.1304,0,0.0539,0.055,0.0596,0.064,0.07,0.0738,0.0791,0.0871,0.0938,0.1116,0.1141,0.1258,0.1353,0.1355,0.1359,0.1352,0.1313,0.1244,0.125,0.1254,0.1222,0.1192,0.118,0,0,0,0,0,0.0512,0.0512,0.0543,0.0588,0.0639,0.0678,0.0774,0.083,0.0959,0.0998,0.1073,0.1139,0.1195,0.1247,0.1224,0.1308,0.1298,0.1274,0.1217,0.1285,0.1289,0.1257,0,0,0,0,0,0,0.0492,0.0513,0.0518,0.0531,0.055,0.0604,0.0661,0.0748,0.0783,0.0921,0.0957,0.1065,0.1127,0.1195,0.12,0.1213,0.1152,0.1344,0.1341,0.1282,0.1286,0.1289,0.1258,0,0,0,0,0]},{"header":{"parameterUnit":"m.s-1","parameterCategory":2,"la1":30.2991,"la2":30.254,"lo1":-89.0895,"lo2":-89.0444,"dy":0.0017,"dx":0.0017,"nx":28,"ny":28,"refTime":"2025-12-28T09:00:00:Z","depth":"4","parameterNumber":3,"parameterNumberName":"V-component_of_CURRENTS"},"data":[0,0,0,0,0,0,0,0,0,0,0,0,0,0,0,0,0,0,0,0,0,0,0,0,0,0,0,0,0,0,0,0,0,0,0,0,0,0,0,0,0,0,0,0,0,0,0,0,0,0,0,0,0,0,0,0,0,0,-0.0132,-0.0132,0,-0.0159,-0.0159,-0.0159,-0.0175,-0.0175,-0.0175,-0.0175,-0.0212,-0.0213,-0.0214,0,0,0,0,0,0,0,0,0,0,0,0,0,-0.0104,-0.0104,-0.0132,-0.0132,-0.0132,-0.0159,-0.0159,-0.0159,-0.0175,-0.0175,-0.0175,-0.0175,-0.0212,-0.0213,-0.0214,0,0,0,0,0,0,0,0,0,0,0,0,0,-0.0123,-0.0104,-0.0132,-0.0143,-0.0144,-0.0158,-0.0159,-0.016,-0.0175,-0.0175,-0.0175,-0.0175,-0.0211,-0.0213,-0.0214,-0.0224,0,0,-0.0219,-0.0219,0,0,0,0,0,0,0,0,-0.0122,-0.0124,-0.0141,-0.0142,-0.0143,-0.0163,-0.0163,-0.0181,-0.0175,-0.0164,-0.0175,-0.0175,-0.0196,-0.0199,-0.0205,-0.0226,-0.0227,-0.0219,-0.022,-0.022,-0.0221,0,0,0,0,0,0,0,-0.012,-0.0123,-0.0143,-0.0141,-0.0142,-0.0149,-0.0152,-0.0166,-0.0181,-0.0165,-0.0166,-0.0168,-0.0197,-0.0203,-0.0206,-0.0228,-0.0219,-0.022,-0.0221,-0.0222,-0.0287,-0.0287,0,0,0,0,0,0,-0.0115,-0.0122,-0.0143,-0.0144,-0.0131,-0.015,-0.0153,-0.0157,-0.0181,-0.0184,-0.0168,-0.0168,-0.0201,-0.0204,-0.0207,-0.0226,-0.022,-0.0222,-0.0223,-0.0286,-0.0287,-0.0288,0,0,0,0,0,0,-0.0114,-0.0116,-0.0141,-0.0132,-0.0136,-0.015,-0.0155,-0.0158,-0.0172,-0.0182,-0.0186,-0.0179,-0.0201,-0.0205,-0.0224,-0.0227,-0.0223,-0.0224,-0.0285,-0.0286,-0.0287,-0.0259,0,0,0,0,0,0,-0.0113,-0.0116,-0.0119,-0.0132,-0.0136,-0.0145,-0.0155,-0.0158,-0.0172,-0.0173,-0.0193,-0.0196,-0.0201,-0.0222,-0.0226,-0.0229,-0.0225,-0.0284,-0.0285,-0.0287,-0.0259,-0.0259,-0.026,0,0,0,0,0,-0.0112,-0.0111,-0.012,-0.0122,-0.014,-0.0144,-0.0147,-0.0158,-0.0172,-0.0172,-0.0192,-0.0196,-0.0235,-0.0224,-0.0228,-0.0232,-0.0283,-0.0285,-0.0287,-0.0259,-0.0259,-0.026,0,0,0,0,0,0,-0.0107,-0.0113,-0.0122,-0.0126,-0.0134,-0.0146,-0.015,-0.0163,-0.018,-0.0185,-0.0202,-0.0206,-0.0225,-0.0238,-0.0226,-0.0258,-0.0262,-0.0264,-0.0239,-0.024,-0.024,-0.0215,-0.0226,0,0,0,0,0,-0.0106,-0.01,-0.0116,-0.0116,-0.0124,-0.0142,-0.0148,-0.0154,-0.0169,-0.0177,-0.0191,-0.0214,-0.0236,-0.0245,-0.0262,-0.0277,-0.029,-0.0286,-0.0286,-0.0286,-0.0271,-0.0305,-0.0306,-0.0294,-0.0294,-0.0294,0,0,-0.0108,-0.0105,-0.0107,-0.0113,-0.0124,-0.0122,-0.0145,-0.0151,-0.0149,-0.0179,-0.0185,-0.0213,-0.0242,-0.0257,-0.0268,-0.0267,-0.0298,-0.0288,-0.0287,-0.0273,-0.0307,-0.0308,-0.0309,-0.0295,-0.0295,-0.0295,0,0,-0.0088,-0.0106,-0.0091,-0.0094,-0.0099,-0.0111,-0.0114,-0.0131,-0.0142,-0.0153,-0.018,-0.0207,-0.0235,-0.0252,-0.0268,-0.0282,-0.03,-0.0299,-0.0275,-0.0308,-0.0309,-0.031,-0.0328,-0.033,-0.0297,-0.0297,-0.0297,0,-0.0086,-0.007,-0.0089,-0.0072,-0.0071,-0.0105,-0.0093,-0.0109,-0.0127,-0.0136,-0.0149,-0.0204,-0.0227,-0.0254,-0.026,-0.0279,-0.03,-0.0268,-0.0306,-0.0307,-0.0308,-0.0327,-0.033,-0.0296,-0.0296,-0.0296,-0.0296,0,-0.0053,-0.0042,-0.0035,-0.0023,-0.0029,-0.0023,-0.0047,-0.0055,-0.0079,-0.0097,-0.013,-0.0169,-0.0199,-0.0221,-0.0242,-0.027,-0.0283,-0.0303,-0.0298,-0.0308,-0.0327,-0.0331,-0.0294,-0.0294,-0.0295,-0.0295,0,0,-0.0038,-0.0014,-0.0011,0.0004,-0.0001,-0.0002,-0.0004,-0.0018,-0.0022,-0.0056,-0.0068,-0.0119,-0.0151,-0.0172,-0.0213,-0.0243,-0.0274,-0.0274,-0.0277,-0.0279,-0.0342,-0.0336,-0.034,-0.0306,-0.0307,-0.0307,-0.0352,0,-0.0003,0.004,0.0041,0.0071,0.0083,0.0061,0.0063,0.0043,0.0015,-0.0005,-0.0063,-0.0092,-0.0132,-0.0154,-0.0191,-0.0259,-0.0283,-0.0259,-0.0344,-0.0346,-0.0329,-0.0344,-0.0309,-0.0354,-0.0355,-0.0356,-0.0356,0,0.003,0.0058,0.0094,0.0121,0.0122,0.0133,0.0123,0.0122,0.0081,0.0058,0.0015,-0.0036,-0.0091,-0.0125,-0.0223,-0.0211,-0.0265,-0.0314,-0.0318,-0.032,-0.0347,-0.0346,-0.0363,-0.0363,-0.0362,-0.0362,-0.0361,0,0.0048,0.0095,0.0125,0.0135,0.0154,0.0164,0.0166,0.0139,0.0139,0.0092,0.0084,0.0004,-0.0036,-0.0119,-0.0222,-0.0228,-0.0329,-0.0349,-0.0389,-0.0389,-0.0391,-0.039,-0.0404,-0.0404,-0.0403,-0.0403,-0.0403,0,0.0085,0.0113,0.0139,0.0157,0.0194,0.0189,0.0212,0.0201,0.0185,0.019,0.0115,0.0096,-0.0039,-0.0117,-0.0208,-0.0309,-0.0319,-0.0378,-0.0401,-0.038,-0.0377,-0.0394,-0.0392,-0.0405,-0.0405,-0.0404,-0.0404,0,0.01,0.0119,0.0161,0.0192,0.0205,0.0225,0.0254,0.0269,0.0249,0.0253,0.024,0.0155,0.0047,-0.0079,-0.022,-0.0283,-0.0385,-0.0415,-0.0371,-0.0392,-0.0424,-0.042,-0.0459,-0.0459,-0.0459,-0.0459,-0.0459,0,0.0115,0.0136,0.0181,0.021,0.0231,0.0264,0.0292,0.0295,0.0315,0.0293,0.0299,0.0198,0.0127,-0.0056,-0.0202,-0.0371,-0.0394,-0.0432,-0.0435,-0.0411,-0.043,-0.0426,-0.0423,-0.046,-0.046,-0.046,-0.046,0,0.0142,0.0151,0.0182,0.024,0.0281,0.033,0.037,0.0392,0.0398,0.0383,0.0352,0.0247,0.0125,-0.0043,-0.018,-0.0301,-0.0403,-0.0434,-0.0435,-0.0437,-0.0413,-0.043,-0.0427,-0.046,-0.046,-0.046,-0.046,0,0.0154,0.018,0.0218,0.0271,0.0326,0.0383,0.0402,0.0432,0.0447,0.0429,0.0414,0.0276,0.0186,-0.0007,-0.0132,-0.0258,-0.0287,-0.0308,-0.0316,-0.0317,-0.027,-0.0218,-0.0219,0,0,0,0,0,0.0166,0.0199,0.025,0.0311,0.0366,0.04,0.0454,0.0467,0.0477,0.0471,0.0447,0.0335,0.0139,0.0043,-0.008,-0.0148,-0.0319,-0.0295,-0.0348,-0.0463,-0.0463,-0.0433,0,0,0,0,0,0,0.0173,0.022,0.0252,0.0335,0.0382,0.0448,0.0484,0.0492,0.0489,0.0475,0.0367,0.0317,0.0114,0.0206,-0.0081,-0.0122,-0.0167,-0.0394,-0.0396,-0.0464,-0.0463,-0.0463,-0.0432,0,0,0,0,0]}]]